Location: Oregon Trail
(41.1872°N, 102.0741°W)
Time: 08:53:44
(UTC+00:00)

SJ-12 - Pass Details

Date: 19 November 2019
Orbit: 570 x 585 km, 97.6° (Epoch: 09 December)

Event Time Altitude Azimuth Distance (km) Brightness Sun altitude
Rises 12:32:43 0° 5° (N) 2,819 7.3 -12.8°
Reaches altitude 10° 12:34:57 10° 358° (N) 1,914 6.4 -12.4°
Maximum altitude 12:38:53 42° 288° (WNW) 838 4.3 -11.7°
Drops below altitude 10° 12:42:46 10° 217° (SW) 1,898 6.4 -11.0°
Sets 12:44:59 0° 210° (SSW) 2,792 7.3 -10.6°
